Weather History for Pecs, Hungary

Change the Weather History Date:

Tuesday, May 28, 2013

  Actual Average Record
Temperature  
Mean Temperature 56 °F -  
Max Temperature 65 °F 75 °F - ()
Min Temperature 47 °F 56 °F - ()
Degree Days  
Heating Degree Days 9    
Growing Degree Days 6 (Base 50)    
Moisture  
Dew Point 50 °F    
Average Humidity 75    
Maximum Humidity 100    
Minimum Humidity 48    
Precipitation  
Precipitation 0.00 in 0.11 in - ()
Sea Level Pressure  
Sea Level Pressure 29.81 in    
Wind  
Wind Speed 5 mph ()    
Max Wind Speed 15 mph    
Max Gust Speed 28 mph    
Visibility 6.2 miles    
Events      
T = Trace of Precipitation, MM = Missing Value Source: Averaged Metar Reports

Daily Weather History Graph

Daily Weather History Graph

Search for Another Location

Airport:

Trip Planner

Search our weather history database for the weather conditions in past years. The results will help you decide how hot, cold, wet, or windy it might be!

Date:

Astronomy

May. 28, 2013 Rise Set
Actual Time 5:02 AM CEST 8:26 PM CEST
Civil Twilight 4:25 AM CEST 9:03 PM CEST
Nautical Twilight 3:37 AM CEST 9:52 PM CEST
Astronomical Twilight 2:35 AM CEST 10:54 PM CEST
Moon 11:31 PM CEST (5/28) 8:33 AM CEST (5/28)
Length of Visible Light 16h 38m
Length of Day
15h 24m
Waning Gibbous, 85% of the Moon is Illuminated
May 28
Waning Gibbous
May 31
Last Quarter
Jun 8
New
Jun 16
First Quarter
Jun 23
Full

Hourly Weather History & Observations

Time (CEST) Temp. Dew Point Humidity Pressure Visibility Wind Dir Wind Speed Gust Speed Precip Events Conditions
12:45 AM 48.2 °F 46.4 °F 93% 29.86 in - East 4.6 mph - N/A   Clear
1:45 AM 50.0 °F 48.2 °F 94% 29.86 in 6.2 mi South 4.6 mph - N/A   Mostly Cloudy
2:00 AM 49 °F 48 °F 96% 29.88 in 31 mi South 4.5 mph - -   Partly Cloudy
2:45 AM 50.0 °F 48.2 °F 94% 29.86 in 6.2 mi NNE 2.3 mph - N/A   Mostly Cloudy
3:45 AM 50.0 °F 48.2 °F 94% 29.86 in 6.2 mi Calm Calm - N/A   Mostly Cloudy
4:45 AM 50.0 °F 48.2 °F 94% 29.83 in 6.2 mi South 2.3 mph - N/A   Mostly Cloudy
5:45 AM 50.0 °F 48.2 °F 94% 29.83 in 6.2 mi South 2.3 mph - N/A   Scattered Clouds
6:15 AM 48.2 °F 48.2 °F 100% 29.83 in 6.2 mi Calm Calm - N/A   Mostly Cloudy
6:45 AM 51.8 °F 51.8 °F 100% 29.83 in - SW 1.2 mph - N/A   Clear
7:00 AM - - N/A% - 6.2 mi SW 4.6 mph - N/A   Clear
7:15 AM 53.6 °F 50.0 °F 88% 29.83 in - SSW 4.6 mph - N/A   Clear
7:45 AM 53.6 °F 50.0 °F 88% 29.86 in - SSW 4.6 mph - N/A   Clear
8:00 AM 54 °F 50 °F 81% 29.85 in 37 mi SSW 4.5 mph - -   Partly Cloudy
8:15 AM 55.4 °F 50.0 °F 82% 29.86 in - SSW 3.5 mph - N/A   Clear
8:45 AM 57.2 °F 50.0 °F 77% 29.86 in - SW 3.5 mph - N/A   Clear
9:15 AM 59.0 °F 48.2 °F 67% 29.86 in - WSW 8.1 mph - N/A   Clear
9:45 AM 59.0 °F 48.2 °F 67% 29.86 in - SW 8.1 mph - N/A   Clear
10:00 AM - - N/A% - 6.2 mi SW 10.4 mph - N/A   Mostly Cloudy
10:15 AM 59.0 °F 48.2 °F 67% 29.83 in - SW 5.8 mph - N/A   Clear
10:45 AM 59.0 °F 50.0 °F 72% 29.83 in - SSW 6.9 mph - N/A   Clear
11:15 AM 62.6 °F 50.0 °F 63% 29.83 in - SW 5.8 mph - N/A   Clear
11:45 AM 64.4 °F 51.8 °F 64% 29.83 in 6.2 mi SSW 9.2 mph - N/A   Mostly Cloudy
12:15 PM 64.4 °F 48.2 °F 56% 29.83 in 6.2 mi SW 8.1 mph - N/A   Overcast
12:45 PM 64.4 °F 51.8 °F 64% 29.83 in 6.2 mi SSW 8.1 mph - N/A   Overcast
1:00 PM - - N/A% - 6.2 mi SW 10.4 mph - N/A   Scattered Clouds
1:15 PM 64.4 °F 51.8 °F 64% 29.83 in 6.2 mi SSW 8.1 mph - N/A   Overcast
1:45 PM 64.4 °F 50.0 °F 59% 29.80 in 6.2 mi South 6.9 mph - N/A   Overcast
2:00 PM 65 °F 50 °F 48% 29.80 in 47 mi South 6.7 mph - -   Partly Cloudy
2:15 PM 64.4 °F 50.0 °F 59% 29.80 in 6.2 mi South 6.9 mph - N/A   Overcast
2:45 PM 64.4 °F 51.8 °F 64% 29.80 in - South 6.9 mph - N/A   Clear
3:14 PM 62.6 °F 51.8 °F 68% 29.80 in - SSW 13.8 mph 27.6 mph N/A   Unknown
3:15 PM 64.4 °F 50.0 °F 59% 29.80 in - South 11.5 mph - N/A   Clear
3:45 PM 62.6 °F 50.0 °F 63% 29.80 in - SW 13.8 mph - N/A   Clear
4:00 PM - - N/A% - 6.2 mi SW 10.4 mph - N/A   Scattered Clouds
4:15 PM 62.6 °F 50.0 °F 63% 29.80 in - SSW 13.8 mph - N/A   Clear
4:45 PM 62.6 °F 51.8 °F 68% 29.77 in 6.2 mi SSW 15.0 mph - N/A   Mostly Cloudy
5:15 PM 62.6 °F 51.8 °F 68% 29.77 in 6.2 mi SSW 13.8 mph - N/A   Mostly Cloudy
5:45 PM 60.8 °F 51.8 °F 72% 29.77 in 6.2 mi SSW 12.7 mph - N/A   Mostly Cloudy
6:15 PM 60.8 °F 51.8 °F 72% 29.77 in 6.2 mi SSW 8.1 mph - N/A   Mostly Cloudy
6:45 PM 60.8 °F 50.0 °F 68% 29.77 in 6.2 mi SSW 9.2 mph - N/A   Mostly Cloudy
7:15 PM 59.0 °F 50.0 °F 72% 29.74 in - South 5.8 mph - N/A   Clear
7:45 PM 59.0 °F 48.2 °F 67% 29.74 in - South 6.9 mph - N/A   Clear
8:00 PM 59 °F 49 °F 59% 29.75 in 47 mi South 6.7 mph - -   Partly Cloudy
8:15 PM 57.2 °F 48.2 °F 72% 29.74 in - South 5.8 mph - N/A   Clear
8:45 PM 57.2 °F 50.0 °F 77% 29.74 in - SSW 4.6 mph - N/A   Clear
9:15 PM 57.2 °F 50.0 °F 77% 29.74 in - South 5.8 mph - N/A   Clear
9:45 PM 57.2 °F 51.8 °F 82% 29.74 in - South 5.8 mph - N/A   Clear
10:45 PM 57.2 °F 50.0 °F 77% 29.74 in - SW 4.6 mph - N/A   Clear
11:45 PM 53.6 °F 50.0 °F 88% 29.74 in - East 1.2 mph - N/A   Clear